Regional Weather Roundup
Issued by NWS

Home | Current Version | Previous Version | Text Only | Print | Product List | Glossary Off
Versions: 1 2 3 4 5 6 7 8 9 10 11 12 13 14 15 16 17 18 19 20 21 22 23 24 25 26 27 28 29 30 31 32 33 34 35 36 37 38 39 40 41 42 43 44 45 46 47 48 49 50

000
ASUS43 KIND 111209
RWRIN

WEATHER ROUNDUP FOR INDIANA
NATIONAL WEATHER SERVICE INDIANAPOLIS IN
700 AM EST THU FEB 11 2016

NOTE: "FAIR" INDICATES FEW OR NO CLOUDS BELOW 12,000 FEET WITH NO
SIGNIFICANT WEATHER AND/OR OBSTRUCTIONS TO VISIBILITY.

* - STATION DOES NOT REPORT WEATHER SUCH AS PRECIPITATION OR FOG.

+ - STATION NOT QUALITY CONTROLLED BY THE NATIONAL WEATHER SERVICE.
    USE DATA WITH CAUTION...ESPECIALLY DEWPOINT AND RELATIVE
    HUMIDITY OBSERVATIONS.

INZ001>003-010>013-019-020-111300-
NORTHWEST INDIANA

CITY           SKY/WX    TMP DP  RH WIND       PRES   REMARKS
GARY /AIRPORT/ PTCLDY    12   0  57 W12       30.26R WCI  -2
KNOX *+        CLOUDY    12   5  73 W7        30.20R WCI   2
LA PORTE +     CLOUDY    19   9  63 NW10      30.19R WCI   8
6HR MIN TEMP:  16; 6HR MAX TEMP:  19;

MICHIGAN CITY+ FLURRIES  19   9  63 NW9       30.21R WCI   9
MONTICELLO +   CLEAR      8  -1  66 NW5       30.23R WCI  -1
6HR MIN TEMP:   7; 6HR MAX TEMP:  11;

RENSSELAER +   CLEAR     12   1  62 NW7       30.24R WCI   2
VALPARAISO     CLOUDY    13   4  67 W10       30.21R WCI   0
6HR MIN TEMP:  10; 6HR MAX TEMP:  14; 6HR PCP: TRACE;


$$

LMZ046-743>745-111300-
SOUTHERN LAKE MICHIGAN

STATION/POSITION TIME  TEMP    WIND        PRES    WAVE
                       AIR SEA DIR/SP/G            HT
                 (UTC) (F)     (DEG/KT/KT) (MB)    (FT)
BURNS HARBOR     1102   18     320/ 14/ 21 1023.0R
MICHIGAN CITY    1100   19     310/ 19/ 23   N/A

$$

INZ004-005-014>016-021>024-111300-
NORTH CENTRAL INDIANA

CITY           SKY/WX    TMP DP  RH WIND       PRES   REMARKS
ELKHART        FLURRIES  14  10  85 CALM      30.18
GOSHEN         LGT SNOW  13   9  84 NW5       30.18R FOG     WCI   5
6HR MIN TEMP:  10; 6HR MAX TEMP:  15; 6HR PCP: TRACE;

LOGANSPORT +   CLEAR      7   0  72 W7        30.23R WCI  -5
PERU/GRISSOM   CLEAR      6   1  79 W9        30.19R WCI  -8
6HR MIN TEMP:   4; 6HR MAX TEMP:  11;

ROCHESTER +    PTCLDY    12   3  67 W7        30.19R WCI   2
SOUTH BEND     CLOUDY    16   9  74 NW9       30.18R WCI   4
6HR MIN TEMP:   8; 6HR MAX TEMP:  16; 6HR PCP: TRACE;

WARSAW +       CLOUDY    14  10  85 W9        30.17R WCI   2

$$

INZ006>009-017-018-025>027-111300-
NORTHEAST INDIANA

CITY           SKY/WX    TMP DP  RH WIND       PRES   REMARKS
ANGOLA *+      CLOUDY    12  10  92 NW3       30.13R
AUBURN +       LGT SNOW  16  10  79 W3        30.17R
FORT WAYNE     CLOUDY    19   8  62 NW6       30.18R WCI  11
6HR MIN TEMP:  14; 6HR MAX TEMP:  21; 6HR PCP: TRACE;

HUNTINGTON +   PTCLDY     7  -1  70 W6        30.18R WCI  -3
6HR MIN TEMP:   7; 6HR MAX TEMP:  13;


$$

INZ028-029-035-036-043>045-051>053-111300-
WEST CENTRAL INDIANA

CITY           SKY/WX    TMP DP  RH WIND       PRES   REMARKS
GREENCASTLE +  CLEAR     12   3  67 CALM      30.23R
LAFAYETTE      PTCLDY     7   1  76 NW6       30.25R WCI  -3
6HR MIN TEMP:   7; 6HR MAX TEMP:  11;

TERRE HAUTE    CLEAR      8   4  83 CALM      30.26R
6HR MIN TEMP:   8; 6HR MAX TEMP:  17;


$$

INZ030>032-037>040-046>048-054>057-064-065-111300-
CENTRAL INDIANA

CITY           SKY/WX    TMP DP  RH WIND       PRES   REMARKS
COLUMBUS       CLOUDY    12  10  92 W6        30.24  WCI   3
FRANKFORT +    PTCLDY     5  -3  70 W5        30.23R WCI  -4
6HR MIN TEMP:   5; 6HR MAX TEMP:  13;

GREENWOOD *+   MOCLDY    12   9  85 CALM      30.22R
INDIANAPOLIS   PTCLDY    10   4  76 W6        30.21R WCI   0
6HR MIN TEMP:  10; 6HR MAX TEMP:  14;

-EAGLE CREEK   CLEAR     13   6  74 NW8       30.21R WCI   2
6HR MIN TEMP:  11; 6HR MAX TEMP:  15;

KOKOMO *+      PTCLDY     7   1  78 W8        30.21R WCI  -6
6HR MIN TEMP:   5; 6HR MAX TEMP:  10;

MARION +       CLEAR      3  -6  66 W6        30.21R WCI  -8
MT COMFORT *+  PTCLDY     7   3  85 NW5       30.21R WCI  -2
SHELBYVILLE    CLOUDY    12   5  73 W5        30.20R WCI   4
6HR MIN TEMP:  10; 6HR MAX TEMP:  16;

ZIONSVILLE +   PTCLDY     8   3  83 CALM      30.21R
6HR MIN TEMP:   5; 6HR MAX TEMP:  12;


$$

INZ033-034-041-042-049-050-058-059-111300-
EAST CENTRAL INDIANA

CITY           SKY/WX    TMP DP  RH WIND       PRES   REMARKS
MUNCIE         CLEAR      9   3  77 W7        30.20R WCI  -2
6HR MIN TEMP:   8; 6HR MAX TEMP:  13;


$$

INZ060-061-067>069-081>083-085>088-111300-
SOUTHWEST INDIANA

CITY           SKY/WX    TMP DP  RH WIND       PRES   REMARKS
EVANSVILLE     CLOUDY    24  16  71 NE7       30.26R WCI  16
6HR MIN TEMP:  24; 6HR MAX TEMP:  24;

HUNTINGBURG *+ CLOUDY    21  12  68 NE6       30.25R WCI  14
6HR MIN TEMP:  21; 6HR MAX TEMP:  21;

WASHINGTON +   CLOUDY    20  10  66 N7        30.26R WCI  11
6HR MIN TEMP:  19; 6HR MAX TEMP:  20;


$$

INZ062-063-066-070>080-084-089>092-111300-
SOUTH CENTRAL AND SOUTHEAST INDIANA

CITY           SKY/WX    TMP DP  RH WIND       PRES   REMARKS
BEDFORD +      CLEAR     12  10  92 CALM      30.24R
BLOOMINGTON    CLEAR      5   1  83 CALM      30.22R
6HR MIN TEMP:   4; 6HR MAX TEMP:  16;

MADISON *+     PTCLDY    10   7  85 CALM      30.24R
NORTH VERNON + CLOUDY     9   7  92 CALM      30.22R
SEYMOUR +      CLEAR     14   9  79 CALM      30.25R

$$




USA.gov is the U.S. government's official web portal to all federal, state and local government web resources and services.